This is the latest recevied weather packets stored in our database for station/object HS6PNA-2. If no packets are shown the sender has not sent any weather packets the latest 10 day(s).
| Time | Temp. | Humidity | Pressure | Rain* | Wind** | Luminosity | Snow |
|---|---|---|---|---|---|---|---|
| 1777696546 | 30° C | 36% | 1004 hPa | - | - | 0 W/m² | - |
| 1777695622 | 30° C | 37% | 1005 hPa | - | - | 0 W/m² | - |
| 1777694697 | 30.56° C | 41% | 1005 hPa | - | - | 0 W/m² | - |
| 1777693772 | 31.67° C | 52% | 1005 hPa | - | - | 0 W/m² | - |
| 1777692847 | 33.89° C | 53% | 1005 hPa | - | - | 0 W/m² | - |
| 1777691922 | 33.89° C | 53% | 1005 hPa | - | - | 0 W/m² | - |
| 1777690998 | 32.78° C | 52% | 1005 hPa | - | - | 0 W/m² | - |
| 1777690073 | 32.22° C | 52% | 1005 hPa | - | - | 0 W/m² | - |
| 1777689149 | 31.67° C | 52% | 1005 hPa | - | - | 0 W/m² | - |
| 1777688225 | 31.67° C | 50% | 1005 hPa | - | - | 0 W/m² | - |
| 1777687300 | 31.11° C | 50% | 1005 hPa | - | - | 0 W/m² | - |
| 1777686376 | 30.56° C | 49% | 1005 hPa | - | - | 0 W/m² | - |
| 1777685450 | 30° C | 48% | 1005 hPa | - | - | 0 W/m² | - |
| 1777684526 | 29.44° C | 45% | 1005 hPa | - | - | 0 W/m² | - |
| 1777683601 | 30° C | 47% | 1005 hPa | - | - | 0 W/m² | - |
| 1777682677 | 30° C | 46% | 1005 hPa | - | - | 0 W/m² | - |
| 1777681752 | 29.44° C | 49% | 1005 hPa | - | - | 0 W/m² | - |
| 1777680828 | 29.44° C | 49% | 1005 hPa | - | - | 0 W/m² | - |
| 1777679903 | 29.44° C | 50% | 1004 hPa | - | - | 0 W/m² | - |
| 1777678979 | 29.44° C | 52% | 1004 hPa | - | - | 0 W/m² | - |
| 1777678053 | 29.44° C | 50% | 1004 hPa | - | - | 0 W/m² | - |
| 1777677129 | 29.44° C | 52% | 1004 hPa | - | - | 0 W/m² | - |
| 1777676204 | 29.44° C | 50% | 1004 hPa | - | - | 0 W/m² | - |
| 1777675280 | 30° C | 50% | 1003 hPa | - | - | 0 W/m² | - |
| 1777674378 | 29.44° C | 51% | 1003 hPa | - | - | 0 W/m² | - |
* Rain since midnight (hover to see other rain measurements)
** Current wind speed in m/s (hover to see current wind gust speed)